Weather History for Wrangell, AK

Change the Weather History Date:

Thursday, May 2, 2013

  Actual Average Record
Temperature  
Mean Temperature 44 °F -  
Max Temperature 46 °F 53 °F 64 °F (2014)
Min Temperature 42 °F 38 °F 32 °F (1951)
Degree Days  
Heating Degree Days 21    
Moisture  
Dew Point 41 °F    
Average Humidity 85    
Maximum Humidity 93    
Minimum Humidity 76    
Precipitation  
Precipitation 0.38 in - - ()
Sea Level Pressure  
Sea Level Pressure 30.36 in    
Wind  
Wind Speed 9 mph (ESE)    
Max Wind Speed 18 mph    
Max Gust Speed 25 mph    
Visibility 9 miles    
Events      
Averages and records for this station are not official NWS values.
T = Trace of Precipitation, MM = Missing Value Source: NWS Daily Summary

Daily Weather History Graph

Daily Weather History Graph

Search for Another Location

Airport:

Trip Planner

Search our weather history database for the weather conditions in past years. The results will help you decide how hot, cold, wet, or windy it might be!

Date:

Astronomy

May. 02, 2013 Rise Set
Actual Time 5:00 AM AKDT 8:33 PM AKDT
Civil Twilight 4:14 AM AKDT 9:20 PM AKDT
Nautical Twilight 3:10 AM AKDT 10:25 PM AKDT
Astronomical Twilight 12:58 AM AKDT 12:13 AM AKDT
Moon 2:15 AM AKDT (5/2) 12:11 PM AKDT (5/2)
Length of Visible Light 17h 05m
Length of Day
15h 33m
Last Quarter, 46% of the Moon is Illuminated
May 2
Last Quarter
May 9
New
May 17
First Quarter
May 24
Full
May 31
Last Quarter

Hourly Weather History & Observations

Time (AKDT) Temp. Windchill Dew Point Humidity Pressure Visibility Wind Dir Wind Speed Gust Speed Precip Events Conditions
12:16 AM 42.8 °F 35.8 °F 37.4 °F 81% 30.19 in 10.0 mi East 13.8 mph - N/A   Overcast
12:36 AM 42.8 °F 35.4 °F 37.4 °F 81% 30.19 in 10.0 mi East 15.0 mph 20.7 mph N/A   Overcast
12:56 AM 44.6 °F 38.1 °F 37.4 °F 76% 30.20 in 10.0 mi East 13.8 mph 25.3 mph 0.01 in   Overcast
1:16 AM 42.8 °F 35.4 °F 37.4 °F 81% 30.19 in 10.0 mi East 15.0 mph 21.9 mph N/A   Overcast
1:36 AM 42.8 °F 35.8 °F 37.4 °F 81% 30.20 in 10.0 mi East 13.8 mph 24.2 mph N/A   Overcast
1:56 AM 42.8 °F 36.2 °F 37.4 °F 81% 30.20 in 7.0 mi East 12.7 mph 23.0 mph 0.02 in   Overcast
2:16 AM 42.8 °F 36.2 °F 37.4 °F 81% 30.20 in 10.0 mi East 12.7 mph - 0.03 in   Overcast
2:36 AM 42.8 °F 40.1 °F 37.4 °F 81% 30.21 in 10.0 mi SSW 4.6 mph - 0.03 in   Overcast
2:56 AM 44.6 °F 43.1 °F 37.4 °F 76% 30.22 in 10.0 mi ESE 3.5 mph - 0.04 in   Overcast
3:16 AM 44.6 °F 42.2 °F 39.2 °F 81% 30.23 in 5.0 mi NE 4.6 mph - N/A   Overcast
3:36 AM 42.8 °F 38.0 °F 39.2 °F 87% 30.23 in 8.0 mi East 8.1 mph - 0.02 in   Overcast
3:56 AM 42.8 °F 36.2 °F 39.2 °F 87% 30.23 in 8.0 mi East 12.7 mph 17.3 mph 0.05 in   Overcast
4:16 AM 42.8 °F 35.4 °F 39.2 °F 87% 30.23 in 9.0 mi East 15.0 mph - 0.02 in   Overcast
4:36 AM 42.8 °F 34.5 °F 37.4 °F 81% 30.22 in 10.0 mi East 18.4 mph 23.0 mph 0.04 in   Overcast
4:56 AM 42.8 °F 35.8 °F 39.2 °F 87% 30.23 in 10.0 mi East 13.8 mph 21.9 mph 0.05 in   Overcast
5:16 AM 42.8 °F 35.1 °F 39.2 °F 87% 30.24 in 10.0 mi East 16.1 mph 19.6 mph N/A   Overcast
5:36 AM 42.8 °F 35.4 °F 37.4 °F 81% 30.24 in 10.0 mi East 15.0 mph - 0.01 in   Overcast
5:56 AM 42.8 °F 37.0 °F 39.2 °F 87% 30.24 in 10.0 mi ESE 10.4 mph 19.6 mph 0.02 in   Overcast
6:16 AM 42.8 °F 36.2 °F 37.4 °F 81% 30.25 in 10.0 mi East 12.7 mph - N/A   Overcast
6:36 AM 44.6 °F 43.1 °F 37.4 °F 76% 30.26 in 10.0 mi SSW 3.5 mph - N/A   Overcast
6:56 AM 42.8 °F 35.8 °F 37.4 °F 81% 30.25 in 10.0 mi East 13.8 mph 17.3 mph N/A   Overcast
7:16 AM 42.8 °F 41.1 °F 37.4 °F 81% 30.27 in 10.0 mi SE 3.5 mph 18.4 mph N/A   Overcast
7:36 AM 44.6 °F 41.4 °F 39.2 °F 81% 30.28 in 10.0 mi SE 5.8 mph - N/A   Overcast
7:56 AM 44.6 °F 38.4 °F 39.2 °F 81% 30.27 in 10.0 mi East 12.7 mph 16.1 mph N/A   Overcast
8:16 AM 44.6 °F 38.1 °F 37.4 °F 76% 30.28 in 10.0 mi East 13.8 mph 19.6 mph N/A   Overcast
8:36 AM 44.6 °F 37.8 °F 39.2 °F 81% 30.28 in 10.0 mi East 15.0 mph - N/A   Overcast
8:56 AM 44.6 °F 39.7 °F 39.2 °F 81% 30.29 in 10.0 mi ESE 9.2 mph - N/A   Overcast
9:16 AM 44.6 °F - 39.2 °F 81% 30.30 in 10.0 mi Calm Calm - N/A   Overcast
9:36 AM 44.6 °F 39.7 °F 39.2 °F 81% 30.30 in 10.0 mi ESE 9.2 mph 16.1 mph N/A   Overcast
9:56 AM 44.6 °F 39.7 °F 39.2 °F 81% 30.31 in 10.0 mi ESE 9.2 mph - N/A   Overcast
10:16 AM 44.6 °F - 39.2 °F 81% 30.32 in 10.0 mi Calm Calm - N/A   Overcast
10:36 AM 44.6 °F 40.7 °F 39.2 °F 81% 30.33 in 10.0 mi SE 6.9 mph - 0.01 in   Overcast
10:56 AM 44.6 °F 40.2 °F 39.2 °F 81% 30.33 in 7.0 mi ESE 8.1 mph - 0.02 in   Overcast
11:16 AM 44.6 °F 40.7 °F 39.2 °F 81% 30.34 in 7.0 mi SE 6.9 mph - 0.02 in   Overcast
11:36 AM 44.6 °F 40.2 °F 41.0 °F 87% 30.34 in 7.0 mi ESE 8.1 mph - 0.02 in   Overcast
11:56 AM 44.6 °F 39.7 °F 41.0 °F 87% 30.35 in 7.0 mi ESE 9.2 mph - 0.02 in   Overcast
12:16 PM 44.6 °F 40.2 °F 41.0 °F 87% 30.36 in 7.0 mi ESE 8.1 mph - N/A   Overcast
12:36 PM 44.6 °F 40.7 °F 41.0 °F 87% 30.37 in 7.0 mi ESE 6.9 mph - N/A   Overcast
12:56 PM 44.6 °F 41.4 °F 41.0 °F 87% 30.38 in 5.0 mi East 5.8 mph - 0.01 in   Overcast
1:16 PM 44.6 °F 43.1 °F 42.8 °F 93% 30.39 in 5.0 mi ESE 3.5 mph - 0.01 in   Overcast
1:36 PM 44.6 °F 41.4 °F 42.8 °F 93% 30.40 in 5.0 mi East 5.8 mph - 0.03 in   Overcast
1:56 PM 46.4 °F 44.3 °F 42.8 °F 87% 30.40 in 5.0 mi ESE 4.6 mph - 0.04 in   Overcast
2:16 PM 44.6 °F 41.4 °F 42.8 °F 93% 30.41 in 5.0 mi ESE 5.8 mph - N/A   Overcast
2:36 PM 46.4 °F 43.5 °F 42.8 °F 87% 30.42 in 5.0 mi East 5.8 mph - N/A   Overcast
2:56 PM 46.4 °F 44.3 °F 42.8 °F 87% 30.42 in 10.0 mi ESE 4.6 mph - N/A   Overcast
3:16 PM 46.4 °F - 42.8 °F 87% 30.44 in 10.0 mi Calm Calm - N/A   Overcast
3:36 PM 46.4 °F 45.2 °F 42.8 °F 87% 30.44 in 10.0 mi East 3.5 mph - 0.01 in   Overcast
3:56 PM 46.4 °F 45.2 °F 42.8 °F 87% 30.44 in 4.0 mi East 3.5 mph - 0.03 in   Overcast
4:16 PM 44.6 °F 41.4 °F 42.8 °F 93% 30.44 in 4.0 mi ESE 5.8 mph - 0.02 in   Overcast
4:36 PM 44.6 °F 42.2 °F 42.8 °F 93% 30.44 in 4.0 mi ESE 4.6 mph - 0.04 in   Overcast
4:56 PM 44.6 °F 43.1 °F 42.8 °F 93% 30.45 in 10.0 mi ESE 3.5 mph - 0.04 in   Overcast
5:16 PM 46.4 °F 44.3 °F 42.8 °F 87% 30.45 in 10.0 mi SE 4.6 mph - N/A   Overcast
5:36 PM 46.4 °F - 42.8 °F 87% 30.46 in 10.0 mi Calm Calm - N/A   Overcast
5:56 PM 46.4 °F 43.5 °F 42.8 °F 87% 30.47 in 10.0 mi SSE 5.8 mph - N/A   Overcast
6:16 PM 46.4 °F 43.5 °F 44.6 °F 93% 30.46 in 10.0 mi ESE 5.8 mph - N/A   Overcast
6:36 PM 46.4 °F - 42.8 °F 87% 30.46 in 10.0 mi Calm Calm - N/A   Overcast
6:56 PM 46.4 °F - 42.8 °F 87% 30.46 in 10.0 mi Calm Calm - N/A   Overcast
7:16 PM 46.4 °F - 42.8 °F 87% 30.47 in 10.0 mi Calm Calm - N/A   Overcast
7:36 PM 46.4 °F - 42.8 °F 87% 30.47 in 10.0 mi Calm Calm - N/A   Overcast
7:56 PM 46.4 °F - 42.8 °F 87% 30.48 in 10.0 mi Calm Calm - N/A   Overcast
8:16 PM 46.4 °F 45.2 °F 42.8 °F 87% 30.48 in 10.0 mi SE 3.5 mph - N/A   Overcast
8:36 PM 46.4 °F - 42.8 °F 87% 30.49 in 10.0 mi Calm Calm - N/A   Overcast
8:56 PM 46.4 °F - 42.8 °F 87% 30.50 in 10.0 mi Calm Calm - N/A   Overcast
9:16 PM 46.4 °F - 42.8 °F 87% 30.51 in 10.0 mi Calm Calm - N/A   Overcast
9:36 PM 44.6 °F - 42.8 °F 93% 30.51 in 10.0 mi Calm Calm - N/A   Overcast
9:56 PM 44.6 °F - 42.8 °F 93% 30.52 in 10.0 mi Calm Calm - N/A   Overcast
10:16 PM 44.6 °F - 42.8 °F 93% 30.53 in 10.0 mi Calm Calm - N/A   Overcast
10:36 PM 44.6 °F 42.2 °F 42.8 °F 93% 30.53 in 10.0 mi SE 4.6 mph - 0.01 in   Overcast
10:56 PM 44.6 °F - 42.8 °F 93% 30.53 in 10.0 mi Calm Calm - 0.02 in   Overcast
11:16 PM 44.6 °F 43.1 °F 42.8 °F 93% 30.54 in 10.0 mi SE 3.5 mph - 0.01 in   Overcast
11:36 PM 44.6 °F 43.1 °F 41.0 °F 87% 30.54 in 10.0 mi NNE 3.5 mph - 0.01 in   Overcast
11:56 PM 44.6 °F - 41.0 °F 87% 30.54 in 10.0 mi Calm Calm - 0.01 in   Overcast